Location: *
(51.0333°S, 178.4667°E)
Time: 03:48:56
(UTC+00:00)

Envisat - Visible Passes

Search period start: 18 January 2020 00:00
Search period end: 28 January 2020 00:00
Orbit: 764 x 766 km, 98.1° (Epoch: 17 January)

Date Brightness Start Highest point End Pass type
(mag) Time Alt. Az. Time Alt. Az. Time Alt. Az.
19 Jan 6.4 09:04:49 10° SSW 09:07:16 14° SW 09:09:43 10° W visible
22 Jan 6.3 08:53:06 10° SSW 08:56:09 16° SW 08:59:11 10° W visible
24 Jan 6.8 09:20:06 10° SW 09:21:12 11° SW 09:22:19 10° WSW visible
24 Jan 6.8 15:43:56 10° ESE 15:45:53 12° SE 15:47:52 10° SSE visible
25 Jan 6.1 08:41:30 10° SSW 08:45:01 19° SW 08:48:31 10° W visible
27 Jan 6.5 09:07:56 10° SSW 09:10:07 13° SW 09:12:17 10° WSW visible
27 Jan 6.9 15:34:13 10° SE 15:34:48 10° SE 15:35:23 10° SE visible
